Tracking 21607 objects as of 23-Oct-2020
HD Live streaming from Space Station
objects crossing your sky now

COSMOS 829

Track COSMOS 829 now!
10-day predictions
COSMOS 829 is classified as:


NORAD ID: 8893
Int'l Code: 1976-054E
Perigee: 1,457.3 km
Apogee: 1,497.4 km
Inclination: 74.0 °
Period: 115.3 minutes
Semi major axis: 7848 km
RCS: 0.7039 m2 (medium)
Launch date: June 15, 1976
Source: Commonwealth of Independent States (former USSR) (CIS)
Launch site: PLESETSK MISSILE AND SPACE COMPLEX (PKMTR)
aabbcc
Your satellite tracking list
Your tracking list is empty




NASA's NSSDC Master Catalog

Two Line Element Set (TLE):
1  8893U 76054E   20296.94535350 -.00000012 +00000-0 +24442-4 0  9997
2  8893 074.0018 204.2022 0025535 018.7543 058.2834 12.48641833021744
Source of the keplerian elements: AFSPC